TimeEST,TemperatureF,Dew PointF,Humidity,Sea Level PressureIn,VisibilityMPH,Wind Direction,Wind SpeedMPH,Gust SpeedMPH,PrecipitationIn,Events,Conditions,WindDirDegrees,DateUTC
12:54 AM,42.1,27.0,55,30.48,-9999.0,North,-9999.0,-,N/A,,Unknown,0,2012-11-14 05:54:00
1:54 AM,42.1,27.0,55,30.48,-9999.0,North,-9999.0,-,N/A,,Unknown,0,2012-11-14 06:54:00
2:54 AM,41.0,28.0,60,30.49,-9999.0,North,-9999.0,-,N/A,,Unknown,0,2012-11-14 07:54:00
3:54 AM,41.0,27.0,57,30.48,-9999.0,North,-9999.0,-,N/A,,Unknown,0,2012-11-14 08:54:00
4:54 AM,41.0,27.0,57,30.50,-9999.0,North,-9999.0,-,N/A,,Unknown,0,2012-11-14 09:54:00
5:54 AM,41.0,28.0,60,30.51,-9999.0,North,-9999.0,-,N/A,,Unknown,0,2012-11-14 10:54:00
6:54 AM,39.9,27.0,60,30.52,-9999.0,North,-9999.0,-,N/A,,Unknown,0,2012-11-14 11:54:00
7:54 AM,41.0,26.1,55,30.57,-9999.0,North,-9999.0,-,N/A,,Unknown,0,2012-11-14 12:54:00
8:54 AM,44.1,25.0,47,30.61,-9999.0,North,-9999.0,-,N/A,,Unknown,0,2012-11-14 13:54:00
9:54 AM,44.1,24.1,45,30.54,-9999.0,North,-9999.0,-,N/A,,Unknown,0,2012-11-14 14:54:00
10:54 AM,45.0,25.0,46,30.56,-9999.0,North,-9999.0,-,N/A,,Unknown,0,2012-11-14 15:54:00
11:54 AM,46.9,25.0,42,30.58,-9999.0,North,-9999.0,-,N/A,,Unknown,0,2012-11-14 16:54:00
12:54 PM,48.0,26.1,42,30.56,-9999.0,North,-9999.0,-,N/A,,Unknown,0,2012-11-14 17:54:00
1:54 PM,48.9,26.1,41,30.50,-9999.0,North,-9999.0,-,N/A,,Unknown,0,2012-11-14 18:54:00
2:54 PM,48.9,26.1,41,30.40,-9999.0,North,-9999.0,-,N/A,,Unknown,0,2012-11-14 19:54:00
3:54 PM,48.9,26.1,41,30.42,-9999.0,North,-9999.0,-,N/A,,Unknown,0,2012-11-14 20:54:00
4:54 PM,48.0,27.0,44,30.44,-9999.0,North,-9999.0,-,N/A,,Unknown,0,2012-11-14 21:54:00
5:54 PM,46.9,27.0,46,30.46,-9999.0,North,-9999.0,-,N/A,,Unknown,0,2012-11-14 22:54:00
6:54 PM,46.9,28.0,48,30.45,-9999.0,North,-9999.0,-,N/A,,Unknown,0,2012-11-14 23:54:00
7:54 PM,46.9,27.0,46,30.44,-9999.0,North,-9999.0,-,N/A,,Unknown,0,2012-11-15 00:54:00
8:54 PM,46.0,27.0,47,30.45,-9999.0,North,-9999.0,-,N/A,,Unknown,0,2012-11-15 01:54:00
9:54 PM,45.0,27.0,49,30.46,-9999.0,North,-9999.0,-,N/A,,Unknown,0,2012-11-15 02:54:00
10:54 PM,44.1,27.0,51,30.46,-9999.0,North,-9999.0,-,N/A,,Unknown,0,2012-11-15 03:54:00
11:54 PM,44.1,27.0,51,30.43,-9999.0,North,-9999.0,-,N/A,,Unknown,0,2012-11-15 04:54:00